Simultaneous Nadir Overpasses (SNOs) Predictions

Prediction of SNOs between AQUA and METOP-A Satellite Orbit:

Table of predicted SNOs for the next 14.0 days since TLE Epoch: 10/27/2017
Index Date (AQUA) Time (AQUA) Lat,Lon (AQUA) SZA (AQUA ) Date (METOP-A) Time (METOP-A) Lat,Lon (METOP-A) SZA (METOP-A ) Distance(km) Time Diff (sec)
1 10/30/2017 13:14:45 -73.98, 155.14 92.16 10/30/2017 13:13:54 -73.96, 155.08 92.17 2.89 51
2 10/30/2017 14:04:14 74.07, -37.43 87.95 10/30/2017 14:04:32 74.06, -37.35 87.94 2.76 18
3 10/30/2017 14:53:54 -74.79, 128.47 91.29 10/30/2017 14:54:59 -74.77, 131.81 91.35 97.42 65
4 11/02/2017 08:49:00 -74.01,-138.50 91.22 11/02/2017 08:48:11 -74.01,-138.39 91.22 3.42 49
5 11/02/2017 09:38:28 74.06, 29.03 88.85 11/02/2017 09:38:50 74.05, 29.05 88.84 1.09 22
6 11/05/2017 04:23:15 -74.01, -72.05 90.35 11/05/2017 04:22:30 -74.01, -71.98 90.35 2.10 45
7 11/05/2017 05:12:43 74.07, 95.46 89.72 11/05/2017 05:13:09 74.05, 95.45 89.70 2.12 26
8 11/07/2017 23:57:30 -74.02, -5.63 89.50 11/07/2017 23:56:49 -74.00, -5.58 89.52 2.35 41
9 11/08/2017 00:46:58 74.08, 161.87 90.57 11/08/2017 00:47:27 74.09, 161.96 90.58 2.67 29




NCC Satellite Simultaneous Nadir Overpasses (SNOs) Prediction Service
